Location: Caltech
(34.1382°N, 118.1253°W)
Time: 01:40:29
(UTC-07:00)

BREEZE M DEB (TANK) - Visible Passes

Search period start: 27 September 2016 00:00
Search period end: 07 October 2016 00:00
Orbit: 324 x 13720 km, 49.6° (Epoch: 26 September)

Date Brightness Start Highest point End Pass type
(mag) Time Alt. Az. Time Alt. Az. Time Alt. Az.
28 Sep 7.6 18:54:46 10° NW 19:53:12 37° W 20:07:41 10° SSW visible
29 Sep 9.0 05:32:29 10° SE 06:18:48 34° E 07:45:36 10° NE visible
30 Sep 7.5 17:46:11 10° NW 19:02:36 50° WSW 19:17:58 10° S visible
01 Oct 9.2 04:47:15 10° SE 05:29:46 24° E 06:39:51 10° NE visible
01 Oct 8.3 20:18:14 10° NW 20:43:38 16° W 20:55:56 10° WSW visible
02 Oct 8.6 06:22:30 10° S 07:08:14 54° E 08:56:12 10° NE visible
03 Oct 9.5 04:09:21 10° E 04:41:59 15° ENE 05:25:50 10° NE visible
03 Oct 8.0 19:07:13 10° NW 19:54:28 26° W 20:09:40 10° SW visible
04 Oct 8.7 05:33:02 10° SSE 06:16:19 43° E 07:55:12 10° NE visible
05 Oct 7.9 17:57:58 10° NW 19:04:37 38° W 19:20:56 10° SSW visible
06 Oct 8.8 04:44:58 10° SE 05:26:03 32° E 06:51:42 10° NE visible
